Hourly Weather Kozino

Today, 23 October, Friday

Time Temperature Precipitation Wind Pressure Humidity
00:00 +8°C° 0 mm 5 mps 743 mmHg 90%
01:00 +9°C° 0 mm 6 mps 743 mmHg 89%
02:00 +9°C° 0 mm 5 mps 743 mmHg 88%
03:00 +9°C° 0 mm 5 mps 743 mmHg 88%
04:00 +10°C° 0 mm 5 mps 743 mmHg 88%
05:00 +10°C° 0 mm 6 mps 743 mmHg 88%
06:00 +10°C° 0 mm 6 mps 744 mmHg 89%
07:00 +9°C° 0 mm 6 mps 744 mmHg 90%
08:00 +9°C° 0 mm 6 mps 744 mmHg 91%
09:00 +10°C° 0 mm 6 mps 744 mmHg 87%
10:00 +11°C° 0 mm 6 mps 744 mmHg 83%
11:00 +13°C° 0 mm 6 mps 744 mmHg 79%
12:00 +13°C° 0 mm 6 mps 743 mmHg 79%
13:00 +13°C° 0 mm 6 mps 743 mmHg 78%
14:00 +14°C° 0 mm 6 mps 743 mmHg 78%
15:00 +10°C° 0 mm 4 mps 743 mmHg 90%
16:00 +10°C° 0 mm 5 mps 742 mmHg 87%
17:00 +13°C° 0 mm 6 mps 742 mmHg 83%
18:00 +12°C° 0.1 mm 5 mps 742 mmHg 85%
19:00 +12°C° 0.1 mm 5 mps 742 mmHg 86%
20:00 +12°C° 0.1 mm 5 mps 742 mmHg 88%
21:00 +12°C° 0 mm 5 mps 742 mmHg 88%
22:00 +12°C° 0 mm 5 mps 742 mmHg 88%
23:00 +12°C° 0 mm 5 mps 742 mmHg 88%

Tomorrow, 24 October, Saturday

Time Temperature Precipitation Wind Pressure Humidity
00:00 +11°C° 0 mm 4 mps 742 mmHg 89%
01:00 +11°C° 0 mm 4 mps 742 mmHg 90%
02:00 +10°C° 0 mm 4 mps 743 mmHg 91%
03:00 +10°C° 0 mm 4 mps 743 mmHg 92%
04:00 +9°C° 0 mm 3 mps 743 mmHg 93%
05:00 +9°C° 0 mm 3 mps 743 mmHg 94%
06:00 +9°C° 0 mm 3 mps 743 mmHg 94%
07:00 +9°C° 0 mm 3 mps 743 mmHg 93%
08:00 +9°C° 0 mm 3 mps 744 mmHg 93%
09:00 +9°C° 0 mm 3 mps 744 mmHg 90%
10:00 +10°C° 0 mm 3 mps 744 mmHg 88%
11:00 +10°C° 0 mm 3 mps 744 mmHg 85%
12:00 +10°C° 0 mm 3 mps 744 mmHg 83%
13:00 +11°C° 0 mm 3 mps 744 mmHg 81%
14:00 +11°C° 0 mm 3 mps 744 mmHg 79%
15:00 +11°C° 0 mm 3 mps 744 mmHg 81%
16:00 +10°C° 0 mm 2 mps 744 mmHg 83%
17:00 +10°C° 0 mm 2 mps 744 mmHg 85%
18:00 +10°C° 0 mm 2 mps 744 mmHg 86%
19:00 +9°C° 0 mm 2 mps 744 mmHg 88%
20:00 +9°C° 0 mm 2 mps 744 mmHg 89%
21:00 +9°C° 0.5 mm 2 mps 744 mmHg 91%
22:00 +9°C° 0.5 mm 2 mps 744 mmHg 93%
23:00 +9°C° 0.5 mm 2 mps 744 mmHg 95%

Day after tomorrow, 25 October, Sunday

Time Temperature Precipitation Wind Pressure Humidity
00:00 +9°C° 0.3 mm 2 mps 744 mmHg 95%
01:00 +8°C° 0.3 mm 2 mps 744 mmHg 96%
02:00 +8°C° 0.3 mm 2 mps 744 mmHg 97%
03:00 +8°C° 0 mm 2 mps 744 mmHg 95%
04:00 +7°C° 0 mm 2 mps 744 mmHg 94%
05:00 +7°C° 0 mm 2 mps 745 mmHg 93%
06:00 +7°C° 0 mm 3 mps 745 mmHg 91%
07:00 +8°C° 0 mm 3 mps 745 mmHg 90%
08:00 +8°C° 0 mm 3 mps 745 mmHg 88%
09:00 +8°C° 0 mm 4 mps 746 mmHg 85%
10:00 +10°C° 0 mm 4 mps 746 mmHg 82%
11:00 +10°C° 0 mm 5 mps 746 mmHg 78%
12:00 +10°C° 0.1 mm 5 mps 747 mmHg 77%
13:00 +11°C° 0.1 mm 4 mps 747 mmHg 75%
14:00 +11°C° 0.1 mm 4 mps 747 mmHg 74%
15:00 +10°C° 0 mm 4 mps 748 mmHg 76%
16:00 +8°C° 0 mm 4 mps 748 mmHg 77%
17:00 +8°C° 0 mm 3 mps 749 mmHg 79%
18:00 +7°C° 0 mm 3 mps 749 mmHg 83%
19:00 +7°C° 0 mm 3 mps 750 mmHg 86%
20:00 +6°C° 0 mm 2 mps 751 mmHg 90%
21:00 +6°C° 0 mm 2 mps 751 mmHg 90%
22:00 +5°C° 0 mm 2 mps 751 mmHg 90%
23:00 +6°C° 0 mm 1 mps 752 mmHg 90%

, 26 October, Monday

Time Temperature Precipitation Wind Pressure Humidity
00:00 +6°C° 0 mm 1 mps 752 mmHg 91%
01:00 +5°C° 0 mm 2 mps 752 mmHg 92%
02:00 +4°C° 0 mm 2 mps 753 mmHg 92%
03:00 +5°C° 0 mm 1 mps 753 mmHg 92%
04:00 +5°C° 0 mm 1 mps 753 mmHg 93%
05:00 +5°C° 0 mm 1 mps 754 mmHg 93%
06:00 +5°C° 0 mm 1 mps 754 mmHg 91%
07:00 +5°C° 0 mm 0 mps 754 mmHg 89%
08:00 +5°C° 0 mm 0 mps 754 mmHg 87%
09:00 +6°C° 0 mm 0 mps 755 mmHg 82%
10:00 +8°C° 0 mm 0 mps 755 mmHg 77%
11:00 +9°C° 0 mm 0 mps 755 mmHg 71%
12:00 +9°C° 0 mm 0 mps 755 mmHg 70%
13:00 +10°C° 0 mm 1 mps 755 mmHg 69%
14:00 +11°C° 0 mm 1 mps 755 mmHg 67%
15:00 +10°C° 0 mm 1 mps 755 mmHg 72%
16:00 +8°C° 0 mm 1 mps 755 mmHg 77%
17:00 +7°C° 0 mm 1 mps 755 mmHg 82%
18:00 +6°C° 0 mm 2 mps 755 mmHg 83%
19:00 +6°C° 0 mm 2 mps 755 mmHg 83%
20:00 +5°C° 0 mm 2 mps 755 mmHg 84%
21:00 +5°C° 0 mm 2 mps 756 mmHg 85%
22:00 +5°C° 0 mm 2 mps 756 mmHg 86%
23:00 +3°C° 0 mm 3 mps 756 mmHg 86%

26 October, Monday

Time Temperature Precipitation Wind Pressure Humidity
00:00 +6°C° 0 mm 1 mps 752 mmHg 91%
01:00 +5°C° 0 mm 2 mps 752 mmHg 92%
02:00 +4°C° 0 mm 2 mps 753 mmHg 92%
03:00 +5°C° 0 mm 1 mps 753 mmHg 92%
04:00 +5°C° 0 mm 1 mps 753 mmHg 93%
05:00 +5°C° 0 mm 1 mps 754 mmHg 93%
06:00 +5°C° 0 mm 1 mps 754 mmHg 91%
07:00 +5°C° 0 mm 0 mps 754 mmHg 89%
08:00 +5°C° 0 mm 0 mps 754 mmHg 87%
09:00 +6°C° 0 mm 0 mps 755 mmHg 82%
10:00 +8°C° 0 mm 0 mps 755 mmHg 77%
11:00 +9°C° 0 mm 0 mps 755 mmHg 71%
12:00 +9°C° 0 mm 0 mps 755 mmHg 70%
13:00 +10°C° 0 mm 1 mps 755 mmHg 69%
14:00 +11°C° 0 mm 1 mps 755 mmHg 67%
15:00 +10°C° 0 mm 1 mps 755 mmHg 72%
16:00 +8°C° 0 mm 1 mps 755 mmHg 77%
17:00 +7°C° 0 mm 1 mps 755 mmHg 82%
18:00 +6°C° 0 mm 2 mps 755 mmHg 83%
19:00 +6°C° 0 mm 2 mps 755 mmHg 83%
20:00 +5°C° 0 mm 2 mps 755 mmHg 84%
21:00 +5°C° 0 mm 2 mps 756 mmHg 85%
22:00 +5°C° 0 mm 2 mps 756 mmHg 86%
23:00 +3°C° 0 mm 3 mps 756 mmHg 86%

27 October, Tuesday

Time Temperature Precipitation Wind Pressure Humidity
00:00 +3°C° 0 mm 3 mps 756 mmHg 86%
01:00 +3°C° 0 mm 3 mps 756 mmHg 87%
02:00 +3°C° 0 mm 3 mps 755 mmHg 87%
03:00 +2°C° 0 mm 3 mps 756 mmHg 88%
04:00 +2°C° 0 mm 3 mps 756 mmHg 88%
05:00 +2°C° 0 mm 3 mps 756 mmHg 89%
06:00 +3°C° 0 mm 3 mps 756 mmHg 88%
07:00 +3°C° 0 mm 3 mps 756 mmHg 87%
08:00 +4°C° 0 mm 3 mps 756 mmHg 86%
09:00 +5°C° 0 mm 4 mps 756 mmHg 82%
10:00 +6°C° 0 mm 4 mps 756 mmHg 78%
11:00 +7°C° 0 mm 4 mps 755 mmHg 75%
12:00 +8°C° 0 mm 4 mps 755 mmHg 74%
13:00 +8°C° 0 mm 4 mps 755 mmHg 74%
14:00 +8°C° 0 mm 4 mps 755 mmHg 73%
15:00 +8°C° 0 mm 4 mps 755 mmHg 76%
16:00 +8°C° 0 mm 3 mps 755 mmHg 80%
17:00 +7°C° 0 mm 3 mps 755 mmHg 83%
18:00 +7°C° 0 mm 3 mps 755 mmHg 82%
19:00 +6°C° 0 mm 4 mps 755 mmHg 82%
20:00 +6°C° 0 mm 4 mps 754 mmHg 82%
21:00 +6°C° 0 mm 4 mps 754 mmHg 81%
22:00 +6°C° 0 mm 4 mps 754 mmHg 80%
23:00 +5°C° 0 mm 4 mps 754 mmHg 79%

28 October, Wednesday

Time Temperature Precipitation Wind Pressure Humidity
00:00 +5°C° 0 mm 3 mps 754 mmHg 78%
01:00 +5°C° 0 mm 3 mps 754 mmHg 77%
02:00 +5°C° 0 mm 3 mps 754 mmHg 77%
03:00 +5°C° 0 mm 3 mps 754 mmHg 76%
04:00 +5°C° 0 mm 3 mps 754 mmHg 76%
05:00 +5°C° 0 mm 3 mps 754 mmHg 75%
06:00 +5°C° 0 mm 4 mps 754 mmHg 74%
07:00 +5°C° 0 mm 4 mps 754 mmHg 72%
08:00 +5°C° 0 mm 4 mps 754 mmHg 71%
09:00 +6°C° 0 mm 4 mps 754 mmHg 67%
10:00 +7°C° 0 mm 4 mps 754 mmHg 63%
11:00 +10°C° 0 mm 4 mps 753 mmHg 59%
12:00 +10°C° 0 mm 4 mps 753 mmHg 59%
13:00 +10°C° 0 mm 4 mps 753 mmHg 58%
14:00 +11°C° 0 mm 4 mps 753 mmHg 58%
15:00 +10°C° 0 mm 3 mps 753 mmHg 62%
16:00 +9°C° 0 mm 3 mps 753 mmHg 67%
17:00 +7°C° 0 mm 2 mps 753 mmHg 71%
18:00 +7°C° 0 mm 3 mps 753 mmHg 71%
19:00 +7°C° 0 mm 3 mps 753 mmHg 71%
20:00 +5°C° 0 mm 3 mps 753 mmHg 71%
21:00 +5°C° 0 mm 3 mps 753 mmHg 71%
22:00 +5°C° 0 mm 3 mps 753 mmHg 71%
23:00 +5°C° 0 mm 3 mps 753 mmHg 70%
Show more